Volver al catálogo

THEMIS E

ActivoCienciaHEO
NORAD 30798·PAYLOAD·🇺🇸 United States

Lanzado Feb 17, 2007 desde Cape Canaveral Space Force Station

Loading…

Próximos Pases (próximas 24 horas)

TLE

ActualizadoSource: Space-Track

Época: Sep 13, 2026, 16:34 UTC

1 30798U 07004E   26256.69042101 -.00000491  00000-0  00000-0 0  9997
2 30798   7.0899  91.4611 8418923 232.9210  15.8626  0.87839811 66698

Sigue THEMIS E en tiempo real con AllMySat

Download on the App Store